DELTA 1 DEB, 27575

Orbit data source: Space-Track

DELTA 1 DEB, 27575 is space debris in LEO originally from a launch on Thu, 14 Jul 1977 UTC launched from the Air Force Eastern Test Range (AFETR). Debris objects in space refer to the collection of defunct objects orbiting the Earth. Examples of debris include non-operational satellites, rocket bodies, and fragments generated from explosions, collisions, or faulty payload assembly.

Loading next visibility...
Identifier
27575, 1977-065GG
Orbit
LEO
Country
Flag of USUS
Related business
Manufacturer
Unknown
Mission
Spacecraft
Bus & Motor
Unknown
Mass
Unknown
Launch date (UTC)
1977-07-14 (48 years ago)
Launch vehicle
Unknown
Launch site
Air Force Eastern Test Range (AFETR)
Object type
Payload
Rocket body
Debris
Shape & HBR
Unknown shape, 0.1 m
Radar Cross Section
Small (<0.1 m²)

Expand to show TLE details & history
Last TLE update: 2 days ago

TLE from 2 days ago
0 DELTA 1 DEB
1 27575U 77065GG  25302.87561332  .00008946  00000-0  33530-2 0  9991
2 27575  29.1187 214.6458 0422981 298.0770 115.9222 13.90868957359572
Epoch: 2025-10-29T21:00Z
TLE epoch observation values (Epoch: 2025-10-29T21:00:52.990Z)
Latitude
24.54936°
Longitude
-84.34864°
Altitude
1,069.347 km
Speed
7.249 km/s
True Right ascension
17h 57m 15s
True Declination
24° 25' 30"
Sunlit
Object was in daylight at epoch
Visualization orbit readout
Latitude
Unknown
Longitude
Unknown
Altitude
Unknown
Speed
Unknown
Apparent Right ascension
Unknown
Apparent Declination
Unknown
Sunlit
N/A
Visualization observer readout
Local Sidereal Time
21:00:25
Azimuth
Unknown
Elevation
Unknown
Doppler factor
Unknown
Orbital elements
Apogee altitude
1,238.591 km
Perigee altitude
620.393 km
Semi-major axis
7,307.629 km
Eccentricity
0.0423
Inclination
29.1187°
RAAN
214.6458°
Arg. of periapsis
298.077°
True anomaly
120.17906°
Mean anomaly
115.9222°
Eccentric anomaly
118.06082°
Mean motion
3.47439 °/min
Orbital period
103.62 mins
BSTAR
0.003353
Loading maneuver chart data...
Computing Atmospheric mass density...
Loading historical data...
Loading historical data...
Loading historical data...
Loading historical data...
Loading historical data...
Loading historical data...
Loading historical data...

Documentation

Showing up to 5 results
|